Temp
31 32 33 32 27 26 26 28 27 23 25 25 24 24 24 23 23 24 24 25 24 24 25 25 25 24 24 24 24 24 24 25 25
31 31 32 32 30 29 27 26 24 24 23 25 24 24 24 23 23 23 25 23 23 24 24 26 24 24 24 24 24 24 24 25 24
32 31 31 31 30 28 24 22 23 24 24 23 23 24 25 23 24 24 24 24 23 24 24 24 24 24 24 24 24 23 23 25 24
26 29 29 28 28 28 26 22 20 21 21 22 23 22 23 23 24 24 24 24 24 24 24 23 23 23 24 24 24 24 23 24 24
22 22 21 22 24 24 23 23 20 21 21 20 21 22 21 22 23 23 24 23 24 23 23 23 23 23 23 24 24 24 23 24 25
22 21 20 20 22 22 23 22 20 20 20 21 21 22 22 20 22 22 23 23 23 24 23 23 24 23 23 24 24 24 23 23 24
20 21 19 18 18 20 20 22 22 21 20 20 21 20 20 21 21 21 22 22 23 23 23 23 24 24 24 24 24 24 24 24 23
21 22 21 18 17 17 17 19 21 21 20 20 19 19 19 19 19 20 20 21 21 22 22 23 23 23 24 24 24 24 23 23 23
22 22 21 19 17 16 16 16 18 19 19 19 19 18 18 18 19 18 19 19 20 20 21 21 22 22 23 23 24 23 22 23 24
22 22 21 19 17 16 15 15 16 16 17 18 18 18 17 18 17 18 18 19 18 18 20 20 20 21 21 19 18 19 21 22 21
22 22 19 19 16 14 13 13 14 15 16 16 16 16 16 16 16 16 16 17 17 17 18 19 20 20 19 17 18 19 20 21 21
24 23 21 19 17 14 12 12 12 13 13 13 13 13 14 15 15 15 15 16 17 17 18 18 19 19 16 15 17 18 20 20 21
23 22 21 20 16 13 13 12 12 13 12 12 11 11 12 13 13 14 14 14 15 15 16 18 19 17 15 15 14 16 18 19 20
21 20 19 17 16 15 14 13 13 12 12 12 12 12 12 13 13 14 14 14 14 14 16 16 16 16 15 13 13 14 16 17 17
20 18 17 16 15 13 12 13 14 12 11 11 12 12 11 11 12 14 13 12 13 14 14 15 15 15 15 15 13 12 13 15 15
19 18 17 17 16 16 15 14 13 12 11 11 11 11 11 11 12 13 13 13 12 13 13 15 15 16 17 16 14 13 11 11 12
19 18 18 18 18 17 16 15 15 14 12 12 12 12 12 12 13 13 13 14 15 15 15 16 16 16 15 14 14 11 9 9 11
19 18 18 18 17 17 16 14 14 13 12 12 13 13 13 13 13 13 13 13 13 13 9 10 14 14 14 14 14 9 8 9 9
19 18 17 17 17 17 15 14 13 13 12 12 13 13 14 15 14 14 14 13 11 9 8 8 9 9 10 9 8 8 9 10 10
17 17 16 15 16 16 15 14 13 12 12 11 12 13 13 14 13 14 14 14 14 12 7 7 8 8 8 8 9 8 9 9 9
Height
794 798 801 806 818 827 832 835 841 848 852 857 861 864 867 870 873 874 875 876 877 877 877 878 879 881 882 883 885 886 887 888 888
788 793 797 804 813 820 828 834 841 845 851 857 860 863 865 868 871 873 873 875 876 876 878 876 879 880 881 882 883 885 885 886 888
782 790 796 803 810 819 828 833 838 842 851 854 858 861 863 866 869 871 873 875 876 876 876 876 878 879 880 881 882 884 884 885 886
796 792 799 808 812 816 824 832 836 838 849 854 855 858 861 862 866 868 870 872 874 874 875 875 875 878 878 880 881 882 883 885 885
811 813 816 817 818 821 826 830 836 840 844 847 851 856 859 860 863 865 867 869 871 873 873 874 875 875 876 878 878 880 881 882 882
812 817 820 821 820 822 826 831 833 838 841 848 850 853 855 857 860 861 865 866 867 869 871 873 874 874 873 875 876 876 878 880 880
815 816 819 822 822 823 827 828 830 835 841 843 847 849 852 854 856 858 859 862 864 865 867 869 871 871 872 872 872 874 875 876 877
814 815 817 823 825 827 828 827 830 833 837 841 843 846 851 850 853 855 858 860 862 863 864 866 868 868 869 870 871 871 872 873 874
810 813 817 823 828 829 829 829 830 832 835 839 841 846 849 851 852 854 856 859 861 862 863 866 866 866 866 866 867 866 867 869 871
811 814 819 825 828 830 831 831 831 832 834 838 841 845 848 851 854 855 857 858 860 862 863 865 866 868 868 866 866 865 865 866 867
811 815 823 826 830 832 833 833 834 835 837 838 842 845 849 852 854 855 858 860 860 861 863 865 867 867 868 867 865 865 865 865 865
809 813 820 826 830 834 836 837 838 838 841 843 845 848 850 853 856 857 860 860 861 861 862 865 867 868 866 866 865 865 863 865 865
813 818 822 827 834 837 840 842 843 844 846 848 851 853 855 855 858 858 860 861 861 862 863 865 865 867 868 865 866 865 864 864 866
819 823 828 833 837 841 844 846 847 848 851 852 855 856 858 859 860 860 861 861 861 863 863 864 866 868 869 867 866 865 864 863 864
824 828 833 837 841 844 847 850 851 853 854 856 856 858 859 861 862 864 863 863 863 863 864 865 867 869 869 869 869 866 865 862 862
826 831 836 838 842 845 848 851 853 856 858 858 860 860 860 861 863 864 864 864 864 865 865 866 868 867 867 869 869 869 866 864 863
826 831 835 837 841 846 849 851 853 855 857 858 859 862 863 863 862 864 865 865 866 866 866 866 867 867 867 868 868 867 864 862 861
825 829 833 837 840 844 848 851 853 855 857 858 859 860 863 862 864 863 866 866 866 866 866 866 866 866 867 865 864 865 861 859 860
824 828 832 836 838 842 846 849 852 854 856 856 858 859 860 859 861 862 864 865 866 865 865 865 865 865 865 865 863 862 861 860 859
826 830 833 834 837 841 845 849 852 853 854 855 857 858 859 859 860 860 861 863 862 865 867 866 865 865 865 864 862 860 858 858 858
Wind_Speed
20 19 18 18 20 19 18 22 20 17 17 15 16 15 14 12 10 9 9 8 6 8 7 7 6 10 9 10 7 6 5 6 7
22 22 18 18 18 20 20 21 20 12 15 11 14 15 14 13 11 9 8 6 6 6 5 6 8 10 10 10 11 9 7 8 8
19 18 17 15 18 20 19 21 21 10 11 11 10 13 14 12 11 9 8 9 9 6 4 6 6 9 9 9 10 10 8 8 9
2 8 12 11 12 16 19 19 19 23 11 8 8 11 13 14 12 9 8 9 9 7 6 7 9 9 11 10 10 10 10 8 7
8 7 5 5 12 12 13 20 21 25 18 15 14 10 12 12 12 13 11 11 11 10 9 8 6 6 9 10 10 11 11 11 9
8 8 6 5 9 12 14 16 18 22 23 19 14 14 13 11 13 10 12 12 11 12 11 8 8 7 6 8 9 9 10 11 10
6 5 5 3 2 3 7 11 16 20 19 23 16 12 11 14 16 21 13 10 11 11 11 11 12 11 10 8 6 6 7 9 9
8 7 8 6 3 1 1 3 14 19 17 17 15 16 16 15 14 15 12 7 6 5 5 6 9 11 10 10 9 9 9 9 9
8 6 6 6 5 5 5 6 10 12 14 14 15 13 14 13 12 10 11 7 5 4 4 1 2 6 7 9 7 13 14 12 10
8 8 8 7 6 6 6 8 11 14 18 20 20 17 14 14 13 9 8 8 5 4 4 4 4 2 3 4 0 8 9 11 10
10 10 8 8 8 9 9 11 16 15 17 19 18 16 13 11 9 7 6 8 7 5 2 2 2 5 5 4 5 2 3 3 5
9 9 13 11 11 11 11 12 14 18 18 15 17 14 12 11 9 9 6 6 4 3 3 4 5 4 6 4 4 3 3 3 1
11 12 12 14 16 15 15 13 15 18 18 17 13 10 9 9 8 7 6 6 6 4 5 5 6 5 4 5 4 3 2 2 2
13 13 15 15 14 14 14 13 17 17 14 14 11 10 8 7 7 6 6 4 5 4 5 6 5 5 4 4 4 5 4 3 2
14 15 16 14 15 13 11 10 10 11 11 8 9 7 7 4 5 3 3 4 5 4 4 5 5 4 4 2 1 4 8 6 4
14 16 15 16 15 13 11 8 8 9 9 8 6 6 6 5 3 2 3 3 3 3 3 5 6 6 5 3 1 2 10 10 9
15 16 15 13 12 11 10 8 7 7 7 6 6 4 5 5 5 4 2 2 2 2 3 3 4 4 4 3 1 3 7 9 8
16 16 15 14 13 12 11 10 9 8 8 7 6 5 4 4 4 4 4 3 2 2 1 2 1 1 1 2 1 5 9 10 9
16 17 17 15 13 13 13 12 11 9 8 7 6 6 6 5 5 5 5 5 5 5 3 3 2 2 5 2 3 5 5 4 4
13 14 15 16 15 13 12 11 10 10 9 8 7 6 6 6 6 5 5 6 7 6 4 6 4 3 3 1 3 4 5 5 5
Wind_Direction
202 208 199 202 173 196 195 197 190 189 184 199 205 207 210 218 218 226 238 235 234 233 204 205 190 196 204 202 203 204 206 209 213
202 202 205 204 189 197 189 177 169 168 204 213 219 215 218 222 225 237 247 236 241 217 225 204 202 200 207 210 209 215 212 225 226
193 197 199 201 195 184 183 181 175 186 215 196 219 224 228 224 225 231 249 248 237 244 244 233 200 203 208 214 218 224 226 223 223
100 181 180 195 194 188 183 170 173 180 193 218 215 214 222 220 219 226 231 242 245 240 246 259 218 215 219 221 226 227 226 238 245
141 139 122 171 185 184 175 174 175 179 190 235 225 239 223 210 217 223 232 236 239 241 241 246 234 238 227 221 227 230 226 227 243
146 137 139 161 188 193 196 189 177 184 186 201 202 225 222 217 220 228 237 245 239 241 241 234 240 244 245 237 231 226 228 228 229
143 141 140 120 69 153 199 200 196 190 185 193 210 208 226 229 244 246 220 241 242 236 237 233 238 238 235 233 223 209 210 222 229
157 162 162 151 124 106 133 164 194 187 185 184 183 195 221 217 220 225 225 210 225 205 215 223 234 227 223 219 218 227 221 221 227
170 162 142 137 139 136 94 103 140 158 167 174 180 182 182 175 159 160 151 142 179 165 146 126 228 231 223 219 211 219 224 221 235
170 167 147 140 138 125 110 99 119 126 139 151 151 151 153 162 164 157 156 145 123 102 121 146 130 102 123 113 195 261 248 248 245
158 150 137 130 127 113 99 113 117 123 136 141 144 136 136 137 143 139 158 182 195 204 167 150 151 146 136 85 29 3 300 269 259
143 139 140 132 123 118 112 116 121 120 107 111 119 107 119 128 138 134 138 142 161 169 188 202 188 168 133 98 42 38 137 86 15
134 129 124 123 122 113 109 107 113 110 105 102 94 94 99 122 130 133 137 136 145 144 153 170 160 149 139 119 54 22 359 58 360
135 131 127 126 123 119 118 122 125 114 112 109 112 112 113 109 121 131 132 131 135 118 140 148 151 155 148 102 91 8 2 302 352
137 136 137 131 128 125 123 124 125 116 116 125 126 123 119 119 99 134 129 133 129 128 136 147 165 182 178 178 152 25 356 4 355
145 141 147 149 143 140 137 136 135 128 137 135 136 129 125 115 102 100 113 121 118 131 151 180 201 204 205 207 217 335 351 358 1
158 158 160 157 153 156 149 145 140 138 145 146 144 151 156 154 147 142 136 147 155 174 178 199 199 194 200 206 198 354 351 349 352
171 169 169 170 173 170 166 161 157 157 161 162 167 164 182 174 182 168 158 131 128 133 69 144 227 141 301 296 297 333 343 346 339
182 180 179 184 184 180 180 176 174 172 172 171 183 190 196 191 195 192 192 179 114 132 119 91 165 146 119 41 337 318 327 332 350
193 193 192 194 192 190 185 189 188 184 178 177 190 211 194 193 202 197 194 204 196 157 106 85 65 70 103 195 325 23 28 57 67